Zurück zum Katalog

FREGAT DEB

LostUNKNOWN
NORAD 45975·DEBRIS·🇷🇺 Russia

Gestartet Jul 18, 2011 von Baikonur Cosmodrome

Loading…

Nächste Überflüge (nächste 24 Stunden)

TLE

VeraltetSource: Space-Track

Epoche: Sep 14, 2020, 23:23 UTC

1 45975U 11037GG  20258.97487394  .00543463  00000-0  24049+0 0  9993
2 45975  51.5433 158.3633 2010925 204.1358 145.0771 10.85930530  5783

Verfolge FREGAT DEB in Echtzeit mit AllMySat

Download on the App Store